www.cux-wetter.de
Wetterdaten: Donnerstag, 14.06.2007
Datum Zeit Temp. A. Feuchte A. Luftdruck Regen Wind Richtung Richtung Sonnenschein Solar Taupunkt Windchill Windben
14.06.2007 00:10 17,4 C 78 % 1005,5 hPa 0,0 l/m 15,0 km/h (3 Bft) NW 305 0 min 0 W/m 13,5 C 14,1 C 15,0 km/h (3 Bft)
14.06.2007 00:25 17,3 C 78 % 1005,5 hPa 0,0 l/m 19,5 km/h (3 Bft) W-NW 285 0 min 0 W/m 13,4 C 12,8 C 19,5 km/h (3 Bft)
14.06.2007 00:40 17,1 C 78 % 1005,5 hPa 0,0 l/m 14,5 km/h (3 Bft) W-NW 290 0 min 0 W/m 13,2 C 13,9 C 14,5 km/h (3 Bft)
14.06.2007 00:55 16,8 C 77 % 1005,5 hPa 0,0 l/m 16,0 km/h (3 Bft) NW 305 0 min 0 W/m 12,7 C 13,1 C 16,0 km/h (3 Bft)
14.06.2007 01:10 16,8 C 77 % 1005,5 hPa 0,0 l/m 13,8 km/h (3 Bft) W-NW 295 0 min 0 W/m 12,7 C 13,7 C 13,8 km/h (3 Bft)
14.06.2007 01:25 16,5 C 77 % 1005,5 hPa 0,0 l/m 15,3 km/h (3 Bft) W-NW 295 0 min 0 W/m 12,5 C 12,9 C 15,3 km/h (3 Bft)
14.06.2007 01:40 16,5 C 77 % 1005,5 hPa 0,0 l/m 15,3 km/h (3 Bft) W-NW 290 0 min 0 W/m 12,5 C 12,9 C 15,3 km/h (3 Bft)
14.06.2007 01:55 16,6 C 78 % 1005,5 hPa 0,0 l/m 10,4 km/h (2 Bft) NW 310 0 min 0 W/m 12,7 C 14,7 C 10,4 km/h (2 Bft)
14.06.2007 02:10 16,6 C 77 % 1005,5 hPa 0,0 l/m 9,7 km/h (2 Bft) W-NW 290 0 min 0 W/m 12,5 C 15,0 C 9,7 km/h (2 Bft)
14.06.2007 02:25 16,8 C 76 % 1005,5 hPa 0,0 l/m 10,7 km/h (2 Bft) W-NW 285 0 min 0 W/m 12,5 C 14,8 C 10,7 km/h (2 Bft)
14.06.2007 02:40 16,9 C 76 % 1005,5 hPa 0,0 l/m 10,8 km/h (2 Bft) W-NW 290 0 min 0 W/m 12,6 C 14,9 C 10,8 km/h (2 Bft)
14.06.2007 02:55 17,1 C 75 % 1005,5 hPa 0,0 l/m 7,0 km/h (2 Bft) W-NW 290 0 min 0 W/m 12,6 C 16,8 C 7,0 km/h (2 Bft)
14.06.2007 03:10 16,8 C 76 % 1005,5 hPa 0,0 l/m 10,3 km/h (2 Bft) W-NW 290 0 min 0 W/m 12,5 C 15,0 C 10,3 km/h (2 Bft)
14.06.2007 03:25 16,8 C 76 % 1005,5 hPa 0,0 l/m 8,1 km/h (2 Bft) W-NW 290 0 min 0 W/m 12,5 C 15,9 C 8,1 km/h (2 Bft)
14.06.2007 03:40 16,8 C 77 % 1005,5 hPa 0,0 l/m 11,1 km/h (2 Bft) W-NW 295 0 min 0 W/m 12,7 C 14,7 C 11,1 km/h (2 Bft)
14.06.2007 03:55 16,7 C 78 % 1005,5 hPa 0,0 l/m 11,2 km/h (2 Bft) NW 320 0 min 0 W/m 12,8 C 14,5 C 11,2 km/h (2 Bft)
14.06.2007 04:10 16,8 C 79 % 1005,5 hPa 0,0 l/m 12,2 km/h (2 Bft) NW 305 0 min 0 W/m 13,1 C 14,3 C 12,2 km/h (2 Bft)
14.06.2007 04:25 16,7 C 80 % 1005,5 hPa 0,0 l/m 9,0 km/h (2 Bft) N-NW 330 0 min 0 W/m 13,2 C 15,4 C 9,0 km/h (2 Bft)
14.06.2007 04:40 16,6 C 80 % 1005,5 hPa 0,0 l/m 8,1 km/h (2 Bft) N-NW 330 0 min 0 W/m 13,1 C 15,7 C 8,1 km/h (2 Bft)
14.06.2007 04:55 16,4 C 80 % 1005,5 hPa 0,0 l/m 9,2 km/h (2 Bft) NW 320 0 min 0 W/m 12,9 C 15,0 C 9,2 km/h (2 Bft)
14.06.2007 05:10 16,6 C 81 % 1005,5 hPa 0,0 l/m 8,9 km/h (2 Bft) N-NW 330 0 min 0 W/m 13,3 C 15,4 C 8,9 km/h (2 Bft)
14.06.2007 05:25 16,9 C 81 % 1004,5 hPa 0,0 l/m 4,4 km/h (1 Bft) NW 315 0 min 0 W/m 13,6 C 16,9 C 4,4 km/h (1 Bft)
14.06.2007 05:40 17,3 C 79 % 1004,5 hPa 0,0 l/m 0,4 km/h (0 Bft) W 265 0 min 0 W/m 13,6 C 17,3 C 0,4 km/h (0 Bft)
14.06.2007 05:55 17,6 C 77 % 1004,5 hPa 0,0 l/m 0,6 km/h (0 Bft) W 275 0 min 0 W/m 13,5 C 17,6 C 0,6 km/h (0 Bft)
14.06.2007 06:10 17,9 C 76 % 1005,5 hPa 0,0 l/m 2,0 km/h (1 Bft) SW 220 0 min 0 W/m 13,6 C 17,9 C 2,0 km/h (1 Bft)
14.06.2007 06:25 18,3 C 75 % 1004,5 hPa 0,0 l/m 2,7 km/h (1 Bft) S 185 0 min 0 W/m 13,8 C 18,3 C 2,7 km/h (1 Bft)
14.06.2007 06:40 18,4 C 74 % 1004,5 hPa 0,0 l/m 0,1 km/h (0 Bft) S 180 0 min 0 W/m 13,7 C 18,4 C 0,1 km/h (0 Bft)
14.06.2007 06:55 18,5 C 74 % 1004,5 hPa 0,0 l/m 0,0 km/h (0 Bft) S 180 0 min 0 W/m 13,8 C 18,5 C 0,0 km/h (0 Bft)
14.06.2007 07:10 18,5 C 75 % 1004,5 hPa 0,0 l/m 0,1 km/h (0 Bft) SW 220 0 min 0 W/m 14,0 C 18,5 C 0,1 km/h (0 Bft)
14.06.2007 07:25 19,0 C 74 % 1004,5 hPa 0,0 l/m 4,8 km/h (1 Bft) SW 215 0 min 0 W/m 14,3 C 19,0 C 4,8 km/h (1 Bft)
14.06.2007 07:40 18,9 C 73 % 1005,5 hPa 0,0 l/m 3,3 km/h (1 Bft) NW 305 0 min 0 W/m 13,9 C 18,9 C 3,3 km/h (1 Bft)
14.06.2007 07:55 18,9 C 73 % 1005,5 hPa 0,0 l/m 7,8 km/h (2 Bft) N-NW 340 0 min 0 W/m 13,9 C 18,3 C 7,8 km/h (2 Bft)
14.06.2007 08:10 18,8 C 74 % 1005,5 hPa 0,0 l/m 10,8 km/h (2 Bft) N 5 0 min 0 W/m 14,1 C 17,0 C 10,8 km/h (2 Bft)
14.06.2007 08:25 18,8 C 73 % 1005,5 hPa 0,0 l/m 11,5 km/h (2 Bft) N-NW 345 0 min 0 W/m 13,9 C 16,8 C 11,5 km/h (2 Bft)
14.06.2007 08:40 18,8 C 73 % 1005,5 hPa 0,0 l/m 11,0 km/h (2 Bft) NW 325 0 min 0 W/m 13,9 C 17,0 C 11,0 km/h (2 Bft)
14.06.2007 08:55 18,6 C 75 % 1005,5 hPa 0,0 l/m 9,4 km/h (2 Bft) N-NW 340 0 min 0 W/m 14,1 C 17,3 C 9,4 km/h (2 Bft)
14.06.2007 09:10 19,6 C 70 % 1005,5 hPa 0,0 l/m 11,4 km/h (2 Bft) N-NW 330 0 min 0 W/m 14,0 C 17,7 C 11,4 km/h (2 Bft)
14.06.2007 09:25 19,8 C 68 % 1005,5 hPa 0,0 l/m 8,3 km/h (2 Bft) N 355 0 min 0 W/m 13,7 C 19,0 C 8,3 km/h (2 Bft)
14.06.2007 09:40 20,0 C 69 % 1005,5 hPa 0,0 l/m 7,6 km/h (2 Bft) N 5 0 min 0 W/m 14,1 C 19,5 C 7,6 km/h (2 Bft)
14.06.2007 09:55 20,0 C 68 % 1005,5 hPa 0,0 l/m 3,7 km/h (1 Bft) N-NO 30 0 min 0 W/m 13,9 C 20,0 C 3,7 km/h (1 Bft)
14.06.2007 10:10 20,4 C 69 % 1005,5 hPa 0,0 l/m 5,7 km/h (2 Bft) N 10 0 min 0 W/m 14,5 C 20,4 C 5,7 km/h (2 Bft)
14.06.2007 10:25 21,0 C 65 % 1005,5 hPa 0,0 l/m 6,3 km/h (2 Bft) N-NO 15 0 min 0 W/m 14,2 C 21,0 C 6,3 km/h (2 Bft)
14.06.2007 10:40 20,8 C 66 % 1005,5 hPa 0,0 l/m 8,9 km/h (2 Bft) NO 50 0 min 0 W/m 14,2 C 19,9 C 8,9 km/h (2 Bft)
14.06.2007 10:55 21,1 C 66 % 1005,5 hPa 0,0 l/m 8,9 km/h (2 Bft) NO 50 0 min 0 W/m 14,5 C 20,2 C 8,9 km/h (2 Bft)
14.06.2007 11:10 21,1 C 67 % 1005,5 hPa 0,0 l/m 9,9 km/h (2 Bft) N-NO 25 0 min 0 W/m 14,7 C 19,9 C 9,9 km/h (2 Bft)
14.06.2007 11:25 21,2 C 65 % 1005,5 hPa 0,0 l/m 10,5 km/h (2 Bft) NO 40 0 min 0 W/m 14,4 C 19,8 C 10,5 km/h (2 Bft)
14.06.2007 11:40 21,0 C 65 % 1006,5 hPa 0,0 l/m 10,9 km/h (2 Bft) N-NO 20 0 min 0 W/m 14,2 C 19,5 C 10,9 km/h (2 Bft)
14.06.2007 11:55 21,0 C 66 % 1006,5 hPa 0,0 l/m 10,0 km/h (2 Bft) NO 40 0 min 0 W/m 14,4 C 19,7 C 10,0 km/h (2 Bft)
14.06.2007 12:10 21,2 C 66 % 1006,5 hPa 0,0 l/m 12,0 km/h (2 Bft) NO 35 0 min 0 W/m 14,6 C 19,4 C 12,0 km/h (2 Bft)
14.06.2007 12:25 21,1 C 66 % 1005,5 hPa 0,0 l/m 13,3 km/h (3 Bft) N-NO 25 0 min 0 W/m 14,5 C 19,0 C 13,3 km/h (3 Bft)
14.06.2007 12:40 21,7 C 65 % 1006,5 hPa 0,0 l/m 14,4 km/h (3 Bft) NO 35 0 min 0 W/m 14,8 C 19,4 C 14,4 km/h (3 Bft)
14.06.2007 12:55 22,2 C 62 % 1006,5 hPa 0,0 l/m 13,1 km/h (3 Bft) NO 35 0 min 0 W/m 14,6 C 20,3 C 13,1 km/h (3 Bft)
14.06.2007 13:10 22,4 C 62 % 1006,5 hPa 0,0 l/m 12,6 km/h (3 Bft) NO 40 0 min 0 W/m 14,8 C 20,7 C 12,6 km/h (3 Bft)
14.06.2007 13:25 22,4 C 59 % 1006,5 hPa 0,0 l/m 14,1 km/h (3 Bft) NO 40 0 min 0 W/m 14,0 C 20,3 C 14,1 km/h (3 Bft)
14.06.2007 13:40 22,8 C 59 % 1005,5 hPa 0,0 l/m 13,7 km/h (3 Bft) N-NO 25 0 min 0 W/m 14,4 C 20,9 C 13,7 km/h (3 Bft)
14.06.2007 13:55 22,5 C 60 % 1005,5 hPa 0,0 l/m 16,1 km/h (3 Bft) N-NO 20 0 min 0 W/m 14,3 C 20,1 C 16,1 km/h (3 Bft)
14.06.2007 14:10 23,2 C 60 % 1006,5 hPa 0,0 l/m 18,1 km/h (3 Bft) NO 35 0 min 0 W/m 15,0 C 20,6 C 18,1 km/h (3 Bft)
14.06.2007 14:25 22,9 C 59 % 1005,5 hPa 0,0 l/m 18,8 km/h (3 Bft) N-NO 30 0 min 0 W/m 14,5 C 20,1 C 18,8 km/h (3 Bft)
14.06.2007 14:40 22,5 C 59 % 1005,5 hPa 0,0 l/m 16,3 km/h (3 Bft) N-NO 20 0 min 0 W/m 14,1 C 20,0 C 16,3 km/h (3 Bft)
14.06.2007 14:55 22,0 C 61 % 1005,5 hPa 0,0 l/m 17,2 km/h (3 Bft) NO 35 0 min 0 W/m 14,1 C 19,3 C 17,2 km/h (3 Bft)
14.06.2007 15:10 21,2 C 63 % 1005,5 hPa 0,0 l/m 17,6 km/h (3 Bft) NO 35 0 min 0 W/m 13,9 C 18,2 C 17,6 km/h (3 Bft)
14.06.2007 15:25 20,8 C 66 % 1005,5 hPa 0,0 l/m 14,0 km/h (3 Bft) N-NO 30 0 min 0 W/m 14,2 C 18,4 C 14,0 km/h (3 Bft)
14.06.2007 15:40 20,2 C 68 % 1005,5 hPa 0,0 l/m 17,0 km/h (3 Bft) N-NO 30 0 min 0 W/m 14,1 C 17,0 C 17,0 km/h (3 Bft)
14.06.2007 15:55 20,7 C 67 % 1005,5 hPa 0,0 l/m 14,8 km/h (3 Bft) N-NO 25 0 min 0 W/m 14,3 C 18,1 C 14,8 km/h (3 Bft)
14.06.2007 16:10 21,9 C 62 % 1005,5 hPa 0,0 l/m 17,0 km/h (3 Bft) NO 45 0 min 0 W/m 14,3 C 19,2 C 17,0 km/h (3 Bft)
14.06.2007 16:25 21,9 C 62 % 1005,5 hPa 0,0 l/m 14,6 km/h (3 Bft) N-NO 25 0 min 0 W/m 14,3 C 19,6 C 14,6 km/h (3 Bft)
14.06.2007 16:40 21,5 C 63 % 1005,5 hPa 0,0 l/m 15,0 km/h (3 Bft) NO 50 0 min 0 W/m 14,2 C 19,1 C 15,0 km/h (3 Bft)
14.06.2007 16:55 21,4 C 63 % 1005,5 hPa 0,0 l/m 15,6 km/h (3 Bft) N 360 0 min 0 W/m 14,1 C 18,8 C 15,6 km/h (3 Bft)
14.06.2007 17:10 21,0 C 65 % 1005,5 hPa 0,0 l/m 15,0 km/h (3 Bft) N-NO 20 0 min 0 W/m 14,2 C 18,5 C 15,0 km/h (3 Bft)
14.06.2007 17:25 21,8 C 62 % 1005,5 hPa 0,0 l/m 17,4 km/h (3 Bft) O-NO 60 0 min 0 W/m 14,2 C 19,0 C 17,4 km/h (3 Bft)
14.06.2007 17:40 21,7 C 63 % 1004,5 hPa 0,0 l/m 16,3 km/h (3 Bft) NO 35 0 min 0 W/m 14,3 C 19,1 C 16,3 km/h (3 Bft)
14.06.2007 17:55 21,9 C 60 % 1004,5 hPa 0,0 l/m 17,0 km/h (3 Bft) NO 40 0 min 0 W/m 13,8 C 19,2 C 17,0 km/h (3 Bft)
14.06.2007 18:10 21,7 C 61 % 1004,5 hPa 0,0 l/m 16,9 km/h (3 Bft) NO 35 0 min 0 W/m 13,8 C 18,9 C 16,9 km/h (3 Bft)
14.06.2007 18:25 21,9 C 60 % 1004,5 hPa 0,0 l/m 17,0 km/h (3 Bft) N-NO 15 0 min 0 W/m 13,8 C 19,2 C 17,0 km/h (3 Bft)
14.06.2007 18:40 21,4 C 61 % 1005,5 hPa 0,0 l/m 19,8 km/h (3 Bft) NO 50 0 min 0 W/m 13,6 C 18,0 C 19,8 km/h (3 Bft)
14.06.2007 18:55 21,2 C 60 % 1005,5 hPa 0,0 l/m 21,5 km/h (4 Bft) NO 50 0 min 0 W/m 13,1 C 17,5 C 21,5 km/h (4 Bft)
14.06.2007 19:10 20,6 C 61 % 1005,5 hPa 0,0 l/m 16,0 km/h (3 Bft) N 355 0 min 0 W/m 12,8 C 17,8 C 16,0 km/h (3 Bft)
14.06.2007 19:25 20,2 C 62 % 1004,5 hPa 0,0 l/m 20,8 km/h (4 Bft) N-NO 20 0 min 0 W/m 12,7 C 16,3 C 20,8 km/h (4 Bft)
14.06.2007 19:40 20,1 C 62 % 1004,5 hPa 0,0 l/m 18,6 km/h (3 Bft) N-NO 30 0 min 0 W/m 12,6 C 16,6 C 18,6 km/h (3 Bft)
14.06.2007 19:55 19,3 C 64 % 1005,5 hPa 0,0 l/m 15,6 km/h (3 Bft) O-NO 70 0 min 0 W/m 12,3 C 16,3 C 15,6 km/h (3 Bft)
14.06.2007 20:10 18,4 C 65 % 1004,5 hPa 0,0 l/m 21,3 km/h (4 Bft) O 100 0 min 0 W/m 11,7 C 13,9 C 21,3 km/h (4 Bft)
14.06.2007 20:25 18,2 C 66 % 1004,5 hPa 0,0 l/m 22,0 km/h (4 Bft) O-NO 75 0 min 0 W/m 11,7 C 13,5 C 22,0 km/h (4 Bft)
14.06.2007 20:40 17,7 C 66 % 1004,5 hPa 0,0 l/m 20,1 km/h (4 Bft) O 100 0 min 0 W/m 11,3 C 13,2 C 20,1 km/h (4 Bft)
14.06.2007 20:55 17,3 C 67 % 1004,5 hPa 0,0 l/m 18,1 km/h (3 Bft) O-NO 75 0 min 0 W/m 11,1 C 13,2 C 18,1 km/h (3 Bft)
14.06.2007 21:10 17,0 C 68 % 1004,5 hPa 0,0 l/m 18,2 km/h (3 Bft) O 80 0 min 0 W/m 11,0 C 12,8 C 18,2 km/h (3 Bft)
14.06.2007 21:25 16,8 C 70 % 1004,5 hPa 0,0 l/m 16,6 km/h (3 Bft) O 85 0 min 0 W/m 11,3 C 12,9 C 16,6 km/h (3 Bft)
14.06.2007 21:40 16,2 C 74 % 1004,5 hPa 0,0 l/m 15,2 km/h (3 Bft) O-NO 65 0 min 0 W/m 11,6 C 12,6 C 15,2 km/h (3 Bft)
14.06.2007 21:55 16,0 C 74 % 1005,5 hPa 0,0 l/m 18,7 km/h (3 Bft) O-NO 70 0 min 0 W/m 11,4 C 11,4 C 18,7 km/h (3 Bft)
14.06.2007 22:11 16,4 C 76 % 1005,5 hPa 0,0 l/m 16,5 km/h (3 Bft) O-NO 65 0 min 0 W/m 12,2 C 12,5 C 16,5 km/h (3 Bft)
14.06.2007 22:26 16,5 C 75 % 1005,5 hPa 0,0 l/m 15,7 km/h (3 Bft) O-NO 60 0 min 0 W/m 12,1 C 12,8 C 15,7 km/h (3 Bft)
14.06.2007 22:41 16,4 C 76 % 1005,5 hPa 0,3 l/m 17,6 km/h (3 Bft) NO 55 0 min 0 W/m 12,2 C 12,2 C 17,6 km/h (3 Bft)
14.06.2007 22:56 16,4 C 77 % 1005,5 hPa 0,0 l/m 16,7 km/h (3 Bft) O 100 0 min 0 W/m 12,4 C 12,4 C 16,7 km/h (3 Bft)
14.06.2007 23:11 16,3 C 78 % 1005,5 hPa 0,0 l/m 18,9 km/h (3 Bft) O 95 0 min 0 W/m 12,5 C 11,7 C 18,9 km/h (3 Bft)
14.06.2007 23:26 16,1 C 78 % 1005,5 hPa 0,0 l/m 18,8 km/h (3 Bft) O 90 0 min 0 W/m 12,3 C 11,5 C 18,8 km/h (3 Bft)
14.06.2007 23:41 15,9 C 79 % 1005,5 hPa 0,3 l/m 15,5 km/h (3 Bft) O 80 0 min 0 W/m 12,3 C 12,1 C 15,5 km/h (3 Bft)
14.06.2007 23:56 15,7 C 81 % 1005,5 hPa 0,3 l/m 16,5 km/h (3 Bft) NO 45 0 min 0 W/m 12,4 C 11,6 C 16,5 km/h (3 Bft)
_ Min-Zeit 23:56 13:25 05:25 - 06:55 - - - - 21:10 21:55 06:55
Minimum _ 15,7 C 59 % 1004,5 hPa - 0,0 km/h (0 Bft) - - - - 11,0 C 11,4 C 0,0 km/h (0 Bft)
_ Max-Zeit 14:10 05:10 11:40 22:41 20:25 - - 00:10 00:10 14:10 10:25 20:25
Maximum _ 23,2 C 81 % 1006,5 hPa 0,3 l/m 22,0 km/h
O-NO (4 Bft)
- - 0 min 0 W/m 15,0 C 21,0 C 22,0 km/h
O-NO (4 Bft)
Durchschnitt _ 19,1 C 70 % 1005,4 hPa #0,9 l/m 12,7 km/h (3 Bft) NO - #0 min. 0 W/m 13,4 C 16,8 C 12,7 km/h (3 Bft)
copyright by Holger Just